Bodensee (Kressbronn): 7,2°C  -  Teich der Wetterzentrale Bad Schussenried: 5,0°C  
06.12.2019Höhe
ü. NN
ZeitTemperatur (°C)Nieder-
schlag
Luft-
feuchte
Luft-
druck
Wind
StationaktuellMinimumMaximumaktuellMaximum
Aldingen654 m05:46-4,4-5,8 (07:53)-3,5 (13:53)0,0 l/m²93%1024,73,7 km/h (1 Bft) SW11,1 km/h (2 Bft) O-SO (11:44)
Allmannsweiler625 m05:45-2,2-2,3 (05:40)-1,6 (00:35)0,0 l/m²99%1023,38,0 km/h (2 Bft) SW17,7 km/h (3 Bft) SW (03:30)
Allmendingen541 m05:45-1,8-2,3 (08:40)-1,6 (14:40)0,0 l/m²91%1023,114,5 km/h (3 Bft) SW19,3 km/h (3 Bft) W-SW (23:20)
Altshausen574 m05:45-2,3-2,3 (05:44)-1,0 (01:02)0,0 l/m²87%1022,13,2 km/h (1 Bft) SW14,5 km/h (3 Bft) S-SW (02:30)
Amstetten-Reutti663 m05:45-6,0-6,7 (08:20)-4,2 (12:55)0,0 l/m²95%1022,90,0 km/h (0 Bft) O-SO14,5 km/h (3 Bft) O (13:00)
Amtzell-Grenis677 m05:45-2,6-2,7 (04:50)-1,9 (00:00)0,0 l/m²81%1025,40,0 km/h (0 Bft) S-SW12,9 km/h (3 Bft) W-SW (00:05)
Aulendorf570 m05:45-1,1-1,1 (04:34)-0,6 (00:00)0,0 l/m²96%1022,79,7 km/h (2 Bft) W-SW22,5 km/h (4 Bft) S (03:02)
Bad Krozingen233 m05:454,7-1,9 (06:05)5,2 (03:45)0,2 l/m²84%1023,616,5 km/h (3 Bft) SW26,4 km/h (4 Bft) S-SW (03:30)
Bad Saulgau595 m05:45-2,1-2,3 (06:00)-1,1 (14:30)0,0 l/m²94%1022,36,4 km/h (2 Bft) NW17,7 km/h (3 Bft) N-NW (21:55)
Bad Saulgau-Lampertsweiler627 m05:45-2,8-2,8 (05:20)-1,5 (00:00)0,0 l/m²93%1025,90,0 km/h (0 Bft) S-SO20,9 km/h (4 Bft) S-SO (02:40)
Bad Schussenried572 m05:45-1,1-1,1 (04:50)-0,6 (01:00)0,0 l/m²98%1022,08,0 km/h (2 Bft) SW22,5 km/h (4 Bft) S-SW (03:10)
Bergatreute615 m05:45-1,5-1,7 (04:40)-0,3 (00:00)0,0 l/m²99%1023,46,4 km/h (2 Bft) S-SW11,3 km/h (2 Bft) S-SW (00:00)
Biberach (Riss), Boehringer533 m05:50-0,7-0,8 (05:50)0,0 (04:00)0,0 l/m²97%1021,710,1 km/h (2 Bft) W-SW25,9 km/h (4 Bft) W-SW (05:20)
Biberach (Riss), Realschule553 m05:45-1,1-1,2 (05:35)-0,7 (00:10)0,0 l/m²97%1024,025,7 km/h (4 Bft) S-SW29,0 km/h (5 Bft) W-SW (04:45)
Burgrieden523 m05:45-1,4-1,4 (02:15)-1,2 (00:00)0,0 l/m²92%1023,00,0 km/h (0 Bft) S-SW20,9 km/h (4 Bft) SW (00:20)
Burgrieden-Hochstetten510 m05:45-1,0-1,1 (06:10)-0,8 (21:25)0,0 l/m²93%1023,212,9 km/h (3 Bft) W-SW19,3 km/h (3 Bft) W-SW (05:10)
Ebersbach579 m05:45-1,3-1,3 (05:00)-0,8 (01:00)0,0 l/m²97%1024,316,1 km/h (3 Bft) S-SW22,5 km/h (4 Bft) S (02:50)
Ebersbach-Boos605 m05:45-2,1-2,1 (05:15)-1,4 (00:55)0,0 l/m²98%1024,10,0 km/h (0 Bft) S-SW12,9 km/h (3 Bft) S (02:45)
Ebersbach-Menzenweiler661 m05:45-1,8-1,9 (05:00)-1,4 (01:05)0,0 l/m²99%1024,012,9 km/h (3 Bft) S-SW14,5 km/h (3 Bft) S (03:25)
Erlenmoos645 m05:45-1,9-2,2 (04:15)-0,3 (01:05)0,0 l/m²93%1023,114,5 km/h (3 Bft) SW17,7 km/h (3 Bft) SW (02:10)
Ertingen569 m05:45-1,5-1,5 (05:45)-1,3 (00:00)0,0 l/m²97%1023,38,0 km/h (2 Bft) S-SW16,1 km/h (3 Bft) S (00:05)
Friedrichshafen405 m05:45-0,1-0,3 (05:15)1,0 (21:10)0,0 l/m²94%1024,61,6 km/h (1 Bft) W-NW11,3 km/h (2 Bft) W-NW (20:30)
Günzburg443 m05:45-0,6-0,7 (01:15)-0,4 (00:00)0,0 l/m²92%1020,36,4 km/h (2 Bft) N14,5 km/h (3 Bft) W (00:15)
Hochdorf-Appendorf537 m05:45-0,9-1,1 (02:45)-0,7 (00:00)0,0 l/m²79%1030,830,6 km/h (5 Bft) S37,0 km/h (5 Bft) S (04:20)
Höchsten802 m05:45-2,8-2,8 (04:40)-2,0 (00:00)0,0 l/m²93%1021,76,4 km/h (2 Bft) S-SW9,7 km/h (2 Bft) S-SW (00:05)
Horgenzell618 m05:45-1,8-1,8 (03:10)-1,1 (00:05)0,0 l/m²97%1022,39,7 km/h (2 Bft) SW24,1 km/h (4 Bft) S-SO (02:20)
Hoßkirch632 m05:45-5,2-5,2 (05:30)-1,5 (00:45)0,0 l/m²96%1022,60,0 km/h (0 Bft) W12,9 km/h (3 Bft) W (00:35)
Isny, Am Dreifingerbach695 m05:45-6,6-7,7 (03:30)-5,9 (00:40)0,0 l/m²94%1024,30,0 km/h (0 Bft) W-NW0,0 km/h (0 Bft) N (05:45)
Isny, Weidachweg706 m05:45-4,8-5,7 (02:30)-4,3 (03:10)0,0 l/m²89%1025,93,2 km/h (1 Bft) S-SW11,3 km/h (2 Bft) SO (04:20)
Kappel-Grafenhausen163 m05:40-4,7-4,7 (07:25)-3,6 (14:00)0,0 l/m²94%1021,10,0 km/h (0 Bft) N14,5 km/h (3 Bft) N-NW (14:20)
Kirchberg an der Iller584 m05:45-1,7-2,1 (04:50)-0,7 (13:45)0,0 l/m²85%1012,43,9 km/h (1 Bft) O12,4 km/h (3 Bft) O-NO (05:20)
Kißlegg-Staibshof709 m05:45-3,2-3,2 (05:35)0,0 (00:15)0,0 l/m²98%1024,10,0 km/h (0 Bft) SW0,0 km/h (0 Bft) N (00:00)
Kressbronn398 m05:460,3-0,3 (00:00)0,3 (04:12)0,0 l/m²94%1023,23,2 km/h (1 Bft) O-SO9,7 km/h (2 Bft) O-SO (00:18)
Kreuzthal-Steinberg-Alpe930 m05:402,21,8 (05:30)4,8 (01:30)0,0 l/m²76%1024,02,9 km/h (1 Bft) N-NW22,0 km/h (4 Bft) W-NW (01:00)
Kreuzthal-Steinberggipfel1040 m05:403,12,6 (05:30)5,3 (01:10)-61%1024,022,7 km/h (4 Bft) SW48,2 km/h (6 Bft) W-SW (01:40)
Kristberg im Montafon (AT)1425 m05:453,22,3 (01:05)4,4 (02:00)0,0 l/m²36%1020,20,0 km/h (0 Bft) N-NO6,4 km/h (2 Bft) N (00:05)
Laupheim500 m05:45-1,4-1,4 (05:45)-0,8 (01:15)0,0 l/m²92%1022,514,5 km/h (3 Bft) W-SW22,5 km/h (4 Bft) SW (00:45)
Leutkirch-Heggelbach670 m05:45-3,7-3,9 (04:15)-2,4 (00:00)0,0 l/m²93%1022,70,0 km/h (0 Bft) W-SW9,7 km/h (2 Bft) S-SW (01:25)
Lindau-Stadt412 m05:45-0,3-0,3 (23:15)-0,1 (15:00)0,0 l/m²95%1024,14,8 km/h (1 Bft) S-SW9,7 km/h (2 Bft) SW (22:10)
Maierhöfen im Allgäu733 m05:45-6,7-7,0 (04:15)-6,0 (00:00)0,0 l/m²94%1024,60,0 km/h (0 Bft) W-SW3,2 km/h (1 Bft) W-SW (05:35)
Maselheim543 m05:45-1,2-1,3 (07:35)-1,0 (23:35)0,0 l/m²94%1023,014,5 km/h (3 Bft) W-SW25,7 km/h (4 Bft) W-SW (21:45)
Maselheim-Sulmingen548 m05:45-1,3-1,3 (06:05)-0,9 (14:10)0,0 l/m²96%1024,216,1 km/h (3 Bft) SW24,1 km/h (4 Bft) SW (23:20)
Mietingen-Baltringen528 m05:45-1,2-1,3 (00:55)-0,8 (02:40)0,0 l/m²93%1024,716,1 km/h (3 Bft) S-SW22,5 km/h (4 Bft) W-SW (03:50)
Mindelheim-Apfeltrach620 m05:46-6,2-6,3 (03:57)-4,4 (00:00)0,0 l/m²92%1024,00,0 km/h (0 Bft) S-SO6,4 km/h (2 Bft) S (00:02)
Mittelbiberach577 m05:47-1,5-1,5 (05:11)-1,1 (00:00)0,0 l/m²96%1024,30,0 km/h (0 Bft) SW0,0 km/h (0 Bft) SW (01:00)
Neresheim552 m05:00-3,4-3,4 (05:00)-2,0 (01:00)0,0 l/m²100%1019,26,5 km/h (2 Bft) S-SW6,5 km/h (2 Bft) S-SW (05:00)
Neukirch570 m05:45-1,0-1,4 (23:50)-0,9 (14:30)0,0 l/m²97%1023,96,4 km/h (2 Bft) S11,3 km/h (2 Bft) W-SW (19:50)
Ochsenhausen, Birkenstraße613 m05:45-1,3-1,5 (07:05)-0,4 (14:25)0,0 l/m²91%1023,60,0 km/h (0 Bft) N0,0 km/h (0 Bft) N (06:00)
Ochsenhausen, Unt. Wiesen575 m05:45-1,4-1,6 (03:45)-0,6 (00:10)0,0 l/m²95%1024,420,9 km/h (4 Bft) W-SW27,4 km/h (4 Bft) SW (05:35)
Ravensburg, Goethestraße428 m05:55-0,3-0,3 (05:40)0,7 (00:55)0,0 l/m²95%1023,214,5 km/h (3 Bft) S-SW20,9 km/h (4 Bft) S-SW (03:40)
Ravensburg, Springerstraße441 m05:450,30,3 (05:35)1,1 (00:00)0,0 l/m²86%1021,22,1 km/h (1 Bft) N-NO10,0 km/h (2 Bft) W-SW (03:25)
Ravensburg-Wernsreute511 m05:45-1,2-1,3 (05:05)-0,1 (13:10)0,0 l/m²97%1026,214,5 km/h (3 Bft) S-SW20,9 km/h (4 Bft) S-SW (02:35)
Reichenbach an der Fils343 m05:45-5,6-5,6 (05:40)-3,2 (00:00)0,0 l/m²88%1024,20,0 km/h (0 Bft) N4,8 km/h (1 Bft) NO (00:00)
Reinstetten559 m05:45-1,1-1,3 (04:15)-0,7 (00:05)0,0 l/m²95%1023,517,7 km/h (3 Bft) N22,5 km/h (4 Bft) N (01:30)
Riedlingen530 m05:45-1,6-1,6 (05:35)-1,1 (01:55)0,0 l/m²95%1023,412,9 km/h (3 Bft) S19,3 km/h (3 Bft) W-SW (05:40)
Rißtissen489 m05:45-0,6-0,7 (01:20)-0,4 (00:00)0,0 l/m²96%1020,519,3 km/h (3 Bft) SW19,3 km/h (3 Bft) W-SW (05:45)
Schemmerhofen520 m05:45-1,0-1,0 (05:40)-0,7 (00:39)0,0 l/m²96%1022,711,3 km/h (2 Bft) W-SW17,7 km/h (3 Bft) W-SW (00:15)
Silbertal im Montafon (AT)884 m05:45-2,2-2,3 (00:00)-1,9 (02:20)0,0 l/m²90%1025,20,0 km/h (0 Bft) W-NW0,0 km/h (0 Bft) W-NW (00:00)
Tettnang466 m05:45-0,7-0,7 (05:45)0,1 (01:30)0,0 l/m²96%1024,14,8 km/h (1 Bft) W-NW11,3 km/h (2 Bft) SW (02:00)
Tuttlingen662 m05:43-3,8-4,7 (02:58)-3,4 (00:03)0,0 l/m²82%1022,10,0 km/h (0 Bft) N-NO0,0 km/h (0 Bft) N-NO (00:03)
Tuttlingen, Möhringer-Vorstadt711 m05:45-3,2-3,9 (08:30)-3,1 (13:15)0,0 l/m²96%1024,01,6 km/h (1 Bft) SW9,7 km/h (2 Bft) W (12:35)
Ummendorf547 m05:45-0,9-1,1 (02:15)-0,6 (00:00)0,0 l/m²89%1024,320,9 km/h (4 Bft) W-SW29,0 km/h (5 Bft) W-SW (04:45)
Ummendorf-Fischbach558 m05:45-1,1-1,3 (02:20)-0,6 (00:00)0,0 l/m²87%1024,017,7 km/h (3 Bft) S19,3 km/h (3 Bft) S-SW (01:40)
Waldburg707 m05:45-2,3-2,3 (05:20)-1,1 (00:00)0,0 l/m²97%1023,80,0 km/h (0 Bft) N8,0 km/h (2 Bft) N (01:05)
Waltenhofen im Allgäu720 m05:45-4,7-5,0 (03:35)-3,0 (00:00)0,0 l/m²93%1023,20,0 km/h (0 Bft) S-SO9,7 km/h (2 Bft) S-SO (21:30)
Wangen, Hans-Schnitzer-Weg569 m05:45-1,8-1,8 (05:45)-0,8 (00:00)0,0 l/m²69%1022,80,0 km/h (0 Bft) SO6,4 km/h (2 Bft) S-SW (00:35)
Weingarten500 m05:45-0,5-0,5 (05:35)0,3 (00:00)0,0 l/m²96%1023,411,3 km/h (2 Bft) SW22,5 km/h (4 Bft) S-SO (02:50)
Winterlingen785 m05:30-6,5-6,7 (03:30)-5,7 (00:00)0,0 l/m²95%1022,50,0 km/h (0 Bft) N2,5 km/h (1 Bft) W-NW (02:35)

niederschlagsdatenbank | info | login - erfassung

Sollten Sie Interesse haben, an der Niederschlagsdatenbank teilzunehmen, finden Sie > hier < weitere Informationen.
Datum: . . Kalender
Anmerkung:0,0 = nicht messbarer Niederschlag
 -  = kein Niederschlag
 k  = kumulierter Niederschlag

< 04.10.201906.10.2019 >


Niederschlagswerte vom 05.10.2019    -    derzeit 110 Stationen

Die Niederschlagswerte des gewählten Tages lassen sich durch Klicken auf das Datum sortieren.
Die Angaben sind in l/m².

Station02.10.03.10.04.10.05.10.06.10.07.10.08.10.Bemerkung 05.10.
Aichstetten Ulmenstraße 718,5---19,5-16,0
Aichstetten-Nestbaum Nestbaum17,0-6,04,0--17,0
Albbruck Furmisstr. 184,5-17,37,07,90,67,8
Tagsüber bewölkt mit kurzen Regenschauern +12°C Nachts +8°C
Regen Nieselregen
Allmendingen Querqueviller Ring 61,3--8,2 k9,5-4,0
Regen
Amstetten-Reutti Gassenäcker 136,4-7,25,09,4-7,6
Regen
Aulendorf Steinenbacher Weg 3310,7-1,86,012,0-5,0
Regen Nieselregen
Aulendorf-Blönried Heuweg 3212,5-2,05,99,4-8,0
Bad Bellingen Rheinstraße 76-------
Bad Buchau Hanfweiher 13,0---12,0-2,0
Bad Saulgau Walserweg6,50,51,56,08,00,55,0
Regen
Bad Saulgau-Hochberg Lampertsweiler Straße 1213,0-1,58,59,5-9,0
Bad Schussenried Konradstraße6,20,01,74,29,0-6,8
Regen Nieselregen
Bad Schussenried Lortzingstrasse7,0-2,05,010,0-7,2
Regen
Bad Schussenried Klosterstraße8,0-2,06,59,5-5,5
Regen
Bad Schussenried Theodor-Storm-Strasse9,0---18,0-7,7
Bad Schussenried-Hopferbach Unterer Öschweg 16/17,5-1,55,011,0-7,0
Regen
Bad Schussenried-Lufthütte Hauptgasse 177,0-2,04,010,0-5,0
Bad Schussenried-Sattenbeuren Ortsstraße 76,0-1,54,29,0--
Regen Nieselregen
Bad Schussenried-Schwaigfurt Schwaigfurt 27,0-2,85,011,0-8,0
Bad Waldsee-Haisterkirch Zur Spitzenkapelle 115,5-2,28,57,00,011,5
+8/+12°C, herbstlich kühl, gegen 13:00 wolkenbruchartiger Regen, son [weiterlesen...]
Regen
Bad Wurzach-Seibranz Kimpflerhof 2 17,00,55,59,015,51,012,0
Baienfurt Untere Bergstrasse 711,0-2,02,07,0-18,0
Regen
Balzheim Hinterm Liess 195,0-4,0----
Berg-Kleintobel Kleintobel5,9-4,34,510,1-10,8
Regen
Biberach Amriswilstrasse4,0-2,43,49,2-4,8
Regen
Biberach Strölinweg----23,0-5,5
Biberach Erlenweg----26,5-5,0
Biberach Neue Heimat 57,0-3,06,0---
Regen
Biberach Mittelbergstraße 96,0-2,56,09,0-4,0
Regen
Biberach-Bergerhausen Löcherstr.19,0-2,93,210,0-4,0
Bierstetten Schloßbühl 66,9-1,35,59,5-5,0
Regen
Blaubeuren-Pappelau Sotzenhauserstr.7--9,06,0-7,04,0
Bühlertal Wolfinstraße 1612,0-8,01,015,02,02,0
Regen
Dornstadt-Tomerdingen Maienweg 98,30,36,57,412,9-4,8
Dürnau Dorfäckerweg 54,0-2,54,09,5-5,0
Regen
Eberhardzell Lilienweg8,0----13,48,0
Ebersbach-Roßwälden Appenwiesen8,4-4,85,514,10,75,5
Morgens und am Vormittag Regen. Gegen Abend auflockern. 10,7 bis 7 [weiterlesen...]
Regen
Ehingen Rosenstraße1,8-1,85,811,90,52,6
Regen
Ehingen Zanderstraße2,1-0,94,810,0-2,6
Regen
Ehingen Schlaufenbühl1,8-1,85,912,7-2,9
Regen
Ehingen Schillerstraße2,2-2,05,512,1--
Regen
Ehingen-Herbertshofen Tobelweg 9-------
Eislingen Albstraße 12512,5-6,35,610,20,114,5
Regen
Erbach-Bach Hauptstraße 241,5-3,05,58,5-3,0
Erlenmoos Haldenweg 1512,6-2,25,511,2-5,6
Regen
Füramoos Hungersberg 12,10,71,46,23,45,5-
Gutenzell Kleinser Berg 110,5--4,59,0-5,0
Gutenzell-Hürbel Bei der Sägmühle 18,50,53,03,510,01,07,0
Regen
Herbertingen Drosselweg4,0-1,55,55,5-3,0
Erst nach Mittag wurde es trocken.
Regen
Herbertingen Hirschstrasse5,0--6,04,5-3,0
Regen
Hochdorf-Schweinhausen Lindenweg 2-5,9-5,5 k10,4--
Hohentengen-Bremen Bremer Halde 410,00,01,02,05,0-5,0
Regen
Horgenzell-Ringgenweiler Ringgenweiler 6209,3-4,75,311,30,010,3
Hüttisheim Ulmer Weg 2-------
Illerkirchberg Mahdauweg 207,0-1,54,46,30,13,0
Regen
Illerrieden-Wangen Am Muckenberg 12------35,0
Immenstaad Stockwiesen 10-------
Inzigkofen Butzenweg 16,0-3,50,92,5-4,0
Regen
Isny Am Dreifingerbach 395,6-9,88,028,4-24,0
Regen
Kirchberg Rosenstr. 78,5-3,0-10,2--
Kreuzthal-Steinberg-Alpe Im Kreuzbachthal 8515,2-12,716,835,0-27,0
Regen
Langenau Wasserstr. 54-1--13,011,010,01,02,5
Langenenslingen Schattenweiler Str. 185,90,32,82,05,60,12,7
Regen Bodennebel
Leutkirch Unterer Auenweg 258,20,04,27,912,2-9,9
Regen
Leutkirch Nachtigallenweg 2812,00,25,512,015,51,515,0
Leutkirch-Adrazhofen Bergstraße 20--94,010,017,51,013,5
Merklingen Millergasse 9-------
Mietingen Seerosenweg 102,0-1,03,514,00,03,0
Regen
Mietingen-Walpertshofen Bussenweg 312,0-2,04,013,0-5,0
Mittelbiberach-Reute Rindenmooser Straße 23,5-2,54,811,2-5,0
Regen
Moosburg Käserweg 54,5-1,02,011,0-6,0
Vereinzelte Schauer. Herbstlich kühl.
Regen
Münsingen-Rietheim In der Lise 209,0-5,69,413,80,06,8
Regen
Neresheim Alfred-Delp-Straße 82,4-1,62,916,00,77,4
Regen
Oberdischingen Normannenstraße 7--7,23,012,9--
Regen
Ochsenhausen Ehrensberger Weg 55,0-1,75,210,6-5,3
Regen
Öpfingen Hauptstraße 991,1-1,95,011,00,02,9
Regen
Ostrach Uhlandweg10,0-1,02,06,5-5,0
Regen
Pfaffenhofen-Kadeltshofen Mühlbachstraße 48,00,52,52,07,00,52,5
Pfullendorf Am Schweizersbild 15,0--6,04,6-5,3
Rangendingen Donaustraße 1912,0-1,03,010,0-5,0
Ravensburg Bleicherstraße-------
Ravensburg-Schmalegg St.-Magdalena-Ring 427,0-4,04,013,9-15,0
Nieselregen
Ravensburg-Wernsreute Wernsreute 253,4-3,811,610,40,217,6
Regen
Ravensburg-Weststadt Karl-Erb-Ring 1427,5-3,96,612,9-13,6
Regen
Regensburg Orleansstraße 31,50,86,52,01,90,515,2
Riedhausen Blütenweg 1313,6-2,01,86,6-11,0
Temp. +5,8°C / +12,3°C, Windböen SW 25,7 km/h
Regen
Riedlingen Berliner Str. 417,0-2,54,0--9,0
Regen
Riedlingen-Neufra Panoramaweg3,0-3,01,54,0-4,0
Regen Nieselregen
Riedlingen-Neufra Riedlinger Strasse3,5-2,02,04,04,03,8
Schelklingen-Gundershofen Schwarzer-Straße 146,0-5,09,014,0-4,0
Temp. zw. +5,5°C und +12,7°C. Morgens Regen. Mittags stark bewölkt [weiterlesen...]
Schemmerberg Drosselweg 93,5-1,02,017,0-3,0
Schwörstadt Schulstrasse 194,0-9,66,69,8-3,2
Regen Nieselregen
Seekirch Haldenberg 7---27,0 k-16,03,0
Sigmaringendorf Weingartenstraße 76,9------
Tuttlingen-Möhringen Eßlinger Straße6,0-2,22,14,9-4,1
Regen Nieselregen
Ulm Eberhardtstraße 753,50,33,11,27,00,94,0
Nebelnässe
Ummendorf Tulpenweg4,8-2,53,511,5-5,5
Regen
Ummendorf Friedrich-Schiller-Str.3,6-1,42,212,01,00,0
Regen
Uttenweiler-Ahlen Seekircher Straße 810,1--6,210,0-3,0
Regen
Vöhringen (Schwarzwald) Drosselweg 38,0-4,0-8,0--
Waldburg Kastanienweg1113,2-5,010,516,5-15,5
Wangen-Bergerhöhe Berg 24,0-5,510,023,8-21,2
Warthausen An der Schloßhalde -------
Warthausen Schwabenwiesen 4,6-2,24,69,8-3,8
Regen
Warthausen-Barabein Barabein 206,5-3,03,511,0-4,5
Regen
Weingarten Laurastraße4,10,52,22,07,50,15,5
+ 7,3 ° C um 8.30 Uhr, 962 hPa
Nieselregen
Weingarten Hoyerstraße-------
Weingarten Marienstraße----29,00,015,0
Wolfegg-Veesers Veesers 1------109,0
Wolpertswende Aulendorfer Str. 177,60,01,53,06,70,315,3
Regen

Stillgelegte Niederschlagsstationen    -    derzeit 50 Stationen

StationLetzte Meldung02.10.03.10.04.10.05.10.06.10.07.10.08.10.Bemerkung 05.10.
Allmannsweiler Eggatsweilerstr.2802.09.2014-------
Aulendorf-Rugetsweiler Erikaweg 325.07.2013-------
Aulendorf-Zollenreute Imterstraße 1209.02.2019-------
Bad Saulgau Willi-Burth-Straße19.09.2011-------
Bad Saulgau Eichendorffweg28.03.2013-------
Bad Saulgau Seewattenstraße 12815.01.2014-------
Bad Saulgau-Lampertsweiler Valentinstr. 2618.02.2015-------
Bad Schussenried-Steinhausen Drosselgasse 4/126.09.2012-------
Bad Waldsee-Michelwinnanden Michelberg 531.12.2014-------
Bad Waldsee-Osterhofen Hochwaldgasse 406.03.2015-------
Bad Waldsee-Steinach Hofraingasse 1510.11.2013-------
Bad Wurzach-Dietmanns Postweg 519.01.2019-------
Bad Wurzach-Haidgau Wengener Straße 507.10.2012-------
Bad Wurzach-Ziegelbach Ziegelbach-Greut 507.11.2014-------
Bergatreute Bolanden 113.02.2012-------
Betzenweiler Offinger Straße 505.01.2017-------
Burgrieden Am Nonnenberg 328.10.2013-------
Burgrieden-Rot Schmiedgasse 518.09.2013-------
Dettingen a. d. Iller Schleifweg 420.05.2019-------
Eberhardzell Schillerstraße05.07.2010-------
Ehingen Am Elzengraben17.06.2016-------
Gammertingen Schillerstraße 2216.01.2016-------
Griesingen Blumenstraße 906.10.2015-------
Günzburg Erlenbadweg 34 1/231.12.2010-------
Hoßkirch Kirchstraße 805.01.2018-------
Ingoldingen-Grodt Ingoldinger Weg 1919.11.2016-------
Kisslegg Kirchmoosstraße02.05.2011-------
Krauchenwies-Hausen Rosenrain 123.11.2013-------
Kressbronn Irisstraße 410.03.2010-------
Leutkirch-Ottmannshofen Spitalriedstraße 527.07.2012-------
Leutkirch-Rotis Rotis 5/208.05.2016-------
Leutkirch-Wuchzenhofen Untere Kirchstraße 18/119.09.2016-------
Mietingen Hangweg 1530.12.2017-------
Mössingen-Bästenhardt Weissdornweg 721.07.2014-------
Ostrach Heiligenberger Straße19.08.2013-------
Pfullendorf Ringstraße 18.03.2012-------
Ravensburg Olgastraße30.10.2016-------
Seltmans Amselweg 2209.04.2013-------
Stuttgart-Bad Cannstatt Beuthener Str. 6703.02.2013-------
Stuttgart-Möhringen Glashütter Weg 1023.04.2017-------
Stuttgart-Rohr Hirschsprung 307.11.2012-------
Talheim Im Schecken 2121.08.2016-------
Tannheim Eggmannstr. 42 22.10.2017-------
Tettnang-Ramsbach Jahnstr. 24/126.03.2011-------
Tuttlingen-Möhringen Belchenstraße01.01.2015-------
Ummendorf Bergstraße23.10.2017-------
Vogt Mühlwies 1822.05.2015-------
Wangen-Atzenberg Keplerweg 324.02.2019-------
Weingarten Bischof-Sproll-Straße30.06.2011-------
Wilhelmsdorf Riedhauser Straße 28.10.2012-------
Wilhelmsdorf Seefeld20.08.2013-------
Wurmlingen An der Steig 3014.10.2016-------
Die Niederschlagswerte des gewählten Tages lassen sich durch Klicken auf das Datum sortieren.
Die Angaben sind in l/m².

Wetterbeobachtungen Legende:

  • Regen
  • Nieselregen
  • Schneeregen
  • Schnee
  • Graupel
  • Eiskörner
  • Hagel
  • Bodennebel
  • Gewitter
  • Nebelnässe
  • Schneegriesel

Grafische Darstellung der Tagesniederschläge vom 05.10.2019

< 04.10.201906.10.2019 >Monats- und Jahresniederschlag


 
wetterstationen
wetterstationen
- derzeit 78 Stationen
niederschlagsdatenbank
wetterstationen
- kartographische Darstellung
niederschlagsdatenbank
niederschlagsstationen
- derzeit 110 Stationen
niederschlagsdatenbank
niederschlagsstationen
- kartographische Darstellung
 
 
Do. 7.30 Uhr - Fr. 7.30 Uhr (MEZ)
1.Weingarten
Laurastraße
0,0 l/m²
 
  treffpunkt & service
--- Anzeigen --------------------------------
zugriffe:
insgesamt: 45.244.763
aktueller monat: 51.705
heute: 340
momentan online: 24
 
 
monatshöchstwert: 653.625
vorheriger monat: 372.551
gestern: 13.206
tageshöchstwert: 51.297
 
wetterwarte süd
 
konradstraße 3
info@wetterwarte-sued.com
roland roth
 
88427 bad schussenried